User: anonymous   Login
Location: Saddleback Butte
(34.6776°N, 117.8050°W)
Time: 07:22:51
(UTC-08:00)
Language:

Cosmos 1862 Rocket - Orbit

View from above orbital plane
View from above orbital plane
View from above satellite
View from above satellite

Ground track
Ground track

The orbit data is extracted from the following two-line orbital elements,

1 18153U 87055B   14325.84316478  .00000628  00000-0  74690-4 0  5069
2 18153 082.5016 265.2407 0020152 294.8925 119.6552 14.82759129479295
Epoch (UTC): 21 November 2014 20:14:09
Eccentricity: 0.0020152
inclination: 82.5016°
perigee height: 606 km
apogee height: 635 km
right ascension of ascending node: 265.2407°
argument of perigee: 294.8925°
revolutions per day: 14.82759129
mean anomaly at epoch: 119.6552°
orbit number at epoch: 47929

The dashed part of the orbit path shows where the satellite is in the earth's shadow,  

DLR